THOR ABLESTAR DEB, 1511

Orbit data source: Space-Track

THOR ABLESTAR DEB, 1511 is space debris in LEO originally from a launch on Fri, 13 Aug 1965 UTC launched from the Air Force Western Test Range (AFWTR). Debris objects in space refer to the collection of defunct objects orbiting the Earth. Examples of debris include non-operational satellites, rocket bodies, and fragments generated from explosions, collisions, or faulty payload assembly.

Loading next visibility...
Identifier
1511, 1965-065D
Orbit
LEO
Last TLE update
1 day ago
Origin
Manufacturer
NRL
Mission
Spacecraft
Bus & Motor
Unknown
Mass
Unknown
Launch date (UTC)
1965-08-13 (60 years ago)
Launch vehicle
Unknown
Launch site
Air Force Western Test Range (AFWTR)
Object type
Payload
Rocket body
Debris
Shape & HBR
Unknown
Radar Cross Section
0.550 m², Medium (>0.1 m² and < 1m²)

Expand to show TLE details & history

TLE from 1 day ago
0 THOR ABLESTAR DEB
1 01511U 65065D   25114.73530802  .00000058  00000-0  98723-4 0  9997
2 01511  89.9786 211.9348 0066946 304.1610 209.2003 13.34159008904880
Epoch: 2025-04-24T17:38Z
Definitive object data (Epoch: 2025-04-24T17:38:50.612Z)
Latitude
27.0446°
Longitude
-85.78943°
Altitude
1,178.427 km
Speed
7.245 km/s
True Right ascension
02h 07m 41s
True Declination
26° 54' 48"
Sunlit
Object was in daylight at TLE epoch
Visualization TLE readout
Latitude
-48.05619°
Longitude
94.19548°
Altitude
1,100.422 km
Speed
7.325 km/s
Apparent Right ascension
14h 30m 39s
Apparent Declination
-44° 16' 56"
Sunlit
Object is in full shadow
Visualization observer readout
Local Sidereal Time
02:54:12
Azimuth
136.942° SSE
Elevation
-83.828°
Doppler factor
1
Orbital elements
Apogee altitude
1,178.441 km
Perigee altitude
1,077.938 km
Semi-major axis
7,506.327 km
Eccentricity
0.0066946
Inclination
89.9786°
RAAN
211.9348°
Arg. of periapsis
304.161°
True anomaly
208.82876°
Mean anomaly
209.2003°
Eccentric anomaly
209.01426°
Mean motion
3.33735 °/min
BSTAR
0.000098723
Orbital period
107.87 mins
Loading maneuver chart data...
Loading SW <> Apogee altitude chart data...
Loading historical data...
Loading historical data...
Loading historical data...
Loading historical data...
Loading historical data...
Loading historical data...
Loading historical data...

THOR ABLESTAR DEB Visibility forecast

Observer location: undefined°, undefined°

Span
Click to sort rows by Start time (UTC) header in descending order
Start Az.
Max El. time (UTC)
Max El. Az.
Max El.
End time (UTC)
End Az.
7 mins2025-04-25 20:30:23.754Z320.088° NNW2025-04-25 20:33:23.754Z293.003° NW16.108°2025-04-25 20:37:23.754Z257.072° W
6 mins2025-04-26 05:03:23.754Z91.475° ESE2025-04-26 05:05:23.754Z72.899° E14.743°2025-04-26 05:09:23.754Z37.2° NE
12 mins2025-04-26 06:47:23.754Z177.857° S2025-04-26 06:52:23.754Z229.167° WSW44.938°2025-04-26 06:59:23.754Z357.301° N
4 mins2025-04-26 08:39:23.754Z269.015° W2025-04-26 08:41:23.754Z287.222° WNW13.032°2025-04-26 08:43:23.754Z305.101° NW
12 mins2025-04-26 18:05:23.754Z17.428° NNE2025-04-26 18:10:23.754Z75.213° E37.168°2025-04-26 18:17:23.754Z160.681° S
|